Burbank, CA

10:10 PM PST on January 21, 2017 (GMT -0800)
Burbank-Glendale-Pasadena

Weather History for KBUR - May, 2014

Change the Weather History Date:

Sunday, May 18, 2014

  Actual Average Record
Temperature  
Mean Temperature 69 °F 66 °F  
Max Temperature 77 °F 76 °F 98 °F (1970)
Min Temperature 61 °F 55 °F 44 °F (1945)
Degree Days  
Heating Degree Days 0 2  
Month to date heating degree days 14 41  
Since 1 July heating degree days 651 1538  
Cooling Degree Days 4 2  
Month to date cooling degree days 146 36  
Year to date cooling degree days 307 87  
Growing Degree Days 18 (Base 50)    
Moisture  
Dew Point 54 °F    
Average Humidity 66    
Maximum Humidity 90    
Minimum Humidity 41    
Precipitation  
Precipitation 0.00 in 0.01 in 0.65 in (1949)
Month to date precipitation T 0.25  
Year to date precipitation 4.91 12.34  
Since 1 July precipitation 5.34  
Sea Level Pressure  
Sea Level Pressure 29.83 in    
Wind  
Wind Speed 7 mph (SSE)    
Max Wind Speed 14 mph    
Max Gust Speed 20 mph    
Visibility 9 miles    
Events Rain    
T = Trace of Precipitation, MM = Missing Value Source: NWS Daily Summary

Daily Weather History Graph

Daily Weather History Graph

Search for Another Location

Airport or City:

Trip Planner

Search our weather history database for the weather conditions in past years. The results will help you decide how hot, cold, wet, or windy it might be!

Date:

Astronomy

May. 18, 2014 Rise Set
Actual Time 5:49 AM PDT 7:50 PM PDT
Civil Twilight 5:21 AM PDT 8:18 PM PDT
Nautical Twilight 4:47 AM PDT 8:52 PM PDT
Astronomical Twilight 4:11 AM PDT 9:29 PM PDT
Moon 11:46 PM PDT (5/18) 9:41 AM PDT (5/18)
Length of Visible Light 14h 57m
Length of Day
14h 01m
Waning Gibbous, 80% of the Moon is Illuminated
May 18
Waning Gibbous
May 21
Last Quarter
May 28
New
Jun 5
First Quarter
Jun 12
Full

Hourly Weather History & Observations

Time (PDT) Temp. Dew Point Humidity Pressure Visibility Wind Dir Wind Speed Gust Speed Precip Events Conditions
12:53 AM 64.9 °F 51.1 °F 61% 29.83 in 10.0 mi SE 9.2 mph - N/A   Clear
1:53 AM 63.0 °F 53.1 °F 70% 29.83 in 10.0 mi SE 6.9 mph - N/A   Clear
2:53 AM 62.1 °F 55.0 °F 78% 29.82 in 8.0 mi SE 5.8 mph - N/A   Clear
3:53 AM 61.0 °F 57.0 °F 87% 29.82 in 9.0 mi SE 5.8 mph - N/A   Clear
4:15 AM 60.8 °F 57.2 °F 88% 29.85 in 9.0 mi ESE 4.6 mph - N/A   Scattered Clouds
4:25 AM 62.6 °F 57.2 °F 82% 29.85 in 9.0 mi SE 5.8 mph - N/A   Mostly Cloudy
4:53 AM 61.0 °F 57.0 °F 87% 29.81 in 8.0 mi South 4.6 mph - N/A   Mostly Cloudy
5:53 AM 61.0 °F 55.9 °F 83% 29.83 in 4.0 mi SE 5.8 mph - N/A   Haze
6:53 AM 61.0 °F 55.9 °F 83% 29.84 in 4.0 mi Calm Calm - N/A   Haze
7:53 AM 62.1 °F 55.0 °F 78% 29.85 in 4.0 mi Calm Calm - N/A   Haze
8:53 AM 66.0 °F 55.0 °F 68% 29.85 in 8.0 mi ESE 4.6 mph - N/A   Partly Cloudy
9:53 AM 69.1 °F 53.1 °F 57% 29.85 in 10.0 mi ESE 5.8 mph - N/A   Clear
10:53 AM 72.0 °F 54.0 °F 53% 29.85 in 10.0 mi Variable 6.9 mph - N/A   Clear
11:53 AM 73.9 °F 53.1 °F 48% 29.84 in 10.0 mi SSE 11.5 mph - N/A   Clear
12:53 PM 73.9 °F 54.0 °F 50% 29.83 in 10.0 mi SSE 11.5 mph - N/A   Clear
1:53 PM 75.9 °F 53.1 °F 45% 29.83 in 10.0 mi South 10.4 mph 17.3 mph N/A   Clear
2:53 PM 75.9 °F 53.1 °F 45% 29.82 in 10.0 mi SSE 11.5 mph - N/A   Clear
3:53 PM 75.9 °F 50.0 °F 40% 29.81 in 10.0 mi South 11.5 mph - N/A   Clear
4:53 PM 75.0 °F 52.0 °F 44% 29.80 in 10.0 mi South 11.5 mph - N/A   Clear
5:53 PM 73.0 °F 52.0 °F 48% 29.79 in 5.0 mi South 12.7 mph - 0.00 in Rain Light Rain
5:56 PM 71.6 °F 51.8 °F 50% 29.82 in 5.0 mi South 12.7 mph - 0.00 in Rain Light Rain
6:53 PM 70.0 °F 50.0 °F 49% 29.79 in 10.0 mi South 10.4 mph - 0.00 in   Clear
7:53 PM 68.0 °F 52.0 °F 56% 29.80 in 10.0 mi SSE 8.1 mph - N/A   Clear
8:53 PM 66.0 °F 52.0 °F 60% 29.82 in 10.0 mi SE 10.4 mph - N/A   Clear
9:53 PM 63.0 °F 51.1 °F 65% 29.84 in 10.0 mi South 10.4 mph - N/A   Clear
10:53 PM 62.1 °F 52.0 °F 70% 29.85 in 10.0 mi South 8.1 mph - N/A   Clear
11:53 PM 62.1 °F 52.0 °F 70% 29.86 in 10.0 mi Calm Calm - N/A   Clear